Wind_Speed
22 22 23 23 24 24 23 23 23 23 24 24 26 26 26 26 26 26 25 24 24 24 24 24 23 23 23 22 22 22 22 21 21 20 20 19 19 18 17 16 16 15 15 14 14 14 14 14 13
24 24 25 25 26 26 25 24 25 25 26 27 27 28 28 28 28 27 26 26 26 26 26 26 26 25 25 25 24 24 24 23 23 22 22 21 20 20 19 18 17 17 17 16 16 16 15 15 15
26 27 27 27 28 28 27 27 27 27 28 29 30 30 31 30 30 30 29 29 29 28 28 28 28 27 27 27 26 26 25 25 25 24 24 23 23 22 21 20 19 19 18 18 18 18 17 17 16
27 27 28 29 29 29 29 29 30 30 30 31 32 33 33 33 33 33 33 33 32 32 31 31 30 30 29 29 28 28 28 27 26 26 26 25 24 24 24 23 22 21 20 20 20 19 19 19 18
28 29 30 30 31 31 31 32 33 33 33 34 35 35 35 36 36 36 36 36 36 35 35 34 33 33 32 31 31 30 30 29 29 28 28 27 27 26 26 25 24 23 22 22 21 21 21 20 20
29 31 31 31 32 33 33 33 35 36 36 37 38 38 38 38 38 39 39 39 39 38 38 38 37 36 35 34 33 33 32 32 31 30 30 29 29 28 28 27 26 25 25 24 23 22 22 22 22
29 31 31 32 33 34 34 36 37 38 39 39 40 41 40 40 40 41 41 41 41 41 40 40 40 39 38 37 36 36 35 34 34 33 32 32 31 31 30 29 29 27 27 26 26 24 24 23 23
29 30 31 32 33 34 35 37 38 40 41 42 42 43 42 42 43 43 43 43 43 43 43 43 42 42 41 40 40 39 38 37 36 36 35 34 34 33 32 32 31 30 29 28 28 27 26 25 25
28 30 30 31 33 35 36 37 39 41 42 43 44 44 44 44 45 45 45 45 46 45 45 46 45 44 44 43 42 41 41 40 39 38 37 37 36 35 34 34 33 32 31 30 29 29 28 27 27
28 29 31 32 34 35 36 38 39 41 41 43 43 44 45 45 46 46 47 47 47 47 47 48 47 47 46 45 45 44 43 42 42 40 40 39 38 38 37 36 35 34 34 33 31 30 30 29 28
28 30 32 33 35 35 36 38 39 41 42 42 43 44 44 45 46 47 47 49 49 49 50 50 50 49 48 48 47 46 46 45 44 43 42 42 41 40 39 39 38 37 35 35 34 33 32 31 30
29 30 32 33 35 35 36 37 37 40 41 41 42 43 44 45 46 47 48 48 50 51 51 52 51 51 50 50 49 49 48 47 46 45 45 44 43 43 42 41 40 39 38 37 36 35 34 33 32
29 30 31 32 33 34 35 36 36 37 39 39 40 42 42 43 45 46 48 48 50 52 52 52 52 52 52 52 51 51 50 49 48 48 47 47 46 45 45 44 42 41 40 39 38 37 36 35 34
28 29 30 32 33 34 34 35 36 36 37 38 39 40 40 41 42 44 47 48 49 51 52 52 53 53 52 52 52 52 52 51 51 50 50 49 48 48 47 46 45 43 42 41 40 39 38 37 36
27 28 29 31 32 33 34 34 34 35 36 37 38 39 39 40 41 42 45 47 48 49 51 51 52 53 54 54 52 53 54 53 52 52 51 51 51 50 49 48 47 46 44 42 42 41 40 38 38
26 27 28 29 31 31 32 31 32 34 35 35 37 37 38 39 39 39 41 44 45 47 49 50 52 54 55 55 54 54 54 54 54 54 53 53 53 52 51 51 50 49 47 45 44 43 42 41 39
26 27 28 28 29 30 31 31 31 33 33 33 34 34 35 37 37 37 39 41 43 45 46 49 50 53 56 56 55 55 55 55 55 55 56 56 56 55 54 53 52 51 49 47 46 45 44 43 41
27 27 27 27 29 29 30 30 31 32 32 32 32 33 34 34 34 35 38 39 42 44 46 49 50 52 53 55 56 56 56 56 56 56 56 56 57 57 56 55 53 53 52 50 47 46 45 44 43
27 28 28 28 28 28 28 29 30 30 30 30 30 31 32 32 33 35 37 38 40 42 44 46 48 51 53 54 54 55 55 55 56 56 55 56 58 58 58 57 55 54 54 53 51 48 47 46 45
28 28 28 27 28 28 27 28 28 28 27 28 29 31 30 30 31 34 34 35 37 40 42 42 44 47 49 52 52 53 53 54 55 56 55 55 56 58 59 58 57 56 55 54 53 50 49 47 47
28 28 27 27 27 28 28 26 25 26 27 27 28 29 30 30 31 32 32 33 35 38 40 40 41 43 45 47 49 50 51 53 54 55 54 55 53 54 57 58 58 57 56 55 53 52 50 49 48
27 27 26 27 29 29 30 29 25 26 26 26 28 29 29 30 31 32 31 31 33 35 36 37 39 39 42 45 47 47 48 50 51 53 53 54 53 51 52 55 57 58 58 56 54 53 52 51 48
27 27 27 28 30 31 30 29 27 26 26 25 27 28 29 30 31 30 30 29 30 32 33 35 38 38 38 41 44 45 45 46 48 50 51 53 53 52 51 52 55 57 58 57 55 54 52 51 48
27 28 29 29 31 31 30 29 27 26 25 25 26 27 28 29 29 29 29 29 30 31 31 33 34 36 37 39 41 42 43 44 45 47 49 51 52 52 50 49 51 55 56 56 55 54 52 51 50
29 30 31 32 32 31 30 29 27 27 27 27 27 28 29 28 28 28 29 29 29 30 31 32 32 34 36 37 40 40 41 41 43 45 46 48 50 50 49 48 50 52 54 54 54 53 51 51 49
30 31 31 32 32 31 30 29 28 28 28 28 28 28 28 28 28 29 29 29 29 29 30 32 33 33 34 36 38 39 40 41 41 42 44 46 47 49 49 48 48 50 52 53 53 52 51 50 49
30 30 31 32 32 32 31 29 28 28 28 28 28 27 28 29 29 29 28 29 28 28 30 33 34 33 33 35 36 37 38 39 40 41 42 44 45 47 49 49 47 47 50 51 51 50 50 50 48
30 32 33 32 33 33 32 31 29 29 29 29 28 28 28 30 30 29 29 29 28 29 31 32 32 32 32 33 34 34 34 36 38 39 40 41 43 44 46 47 47 47 48 49 49 48 48 48 48
31 31 32 32 33 34 34 33 31 31 31 31 30 29 30 30 31 31 30 30 29 29 30 30 29 30 30 31 30 31 32 34 36 38 39 40 42 43 45 46 45 45 47 49 48 47 46 46 47
31 32 32 32 33 34 35 34 32 32 32 33 32 31 31 31 31 31 30 30 29 29 29 29 28 29 30 31 30 29 31 34 34 35 37 39 41 42 43 44 43 43 46 48 48 46 45 45 46
Wind_Direction
269 270 270 269 268 267 268 267 267 265 263 261 260 259 259 258 257 257 256 254 253 252 251 250 248 246 244 244 244 244 243 244 243 243 243 245 247 249 252 254 257 259 261 264 268 270 274 275 278
269 269 269 268 269 269 269 269 269 267 264 262 262 261 261 260 259 258 257 255 253 252 252 251 251 249 247 245 244 244 243 244 244 245 245 245 247 249 252 254 256 258 261 263 265 268 271 272 274
268 268 268 269 270 270 270 269 268 267 265 263 262 262 262 261 260 258 256 255 254 252 251 251 251 250 249 247 245 244 244 244 245 246 247 247 247 248 250 253 256 258 259 262 264 266 268 268 270
268 268 268 269 269 270 270 269 268 267 266 264 264 263 262 262 260 259 257 255 254 253 251 251 251 250 249 249 248 246 245 245 246 246 247 248 249 249 250 252 254 256 259 261 263 265 266 265 267
268 268 268 268 269 269 269 269 269 268 267 265 264 264 263 262 261 259 258 256 254 253 252 251 251 250 249 248 248 247 246 246 247 248 248 248 249 251 252 252 254 256 258 261 262 263 264 264 265
269 269 269 269 269 270 270 269 268 268 267 266 265 264 263 262 261 260 258 257 255 253 252 251 250 250 250 249 248 248 247 247 247 248 249 250 250 251 253 254 254 256 258 261 262 263 263 263 264
271 270 270 270 270 270 270 270 269 268 268 267 265 264 262 261 260 259 259 257 255 254 252 251 250 250 250 249 249 249 249 248 248 248 249 250 251 252 252 253 255 256 258 260 262 262 262 262 262
275 274 273 271 271 271 271 271 270 269 268 267 266 265 263 261 260 259 258 257 256 254 252 252 251 250 250 249 248 248 249 249 249 249 249 250 251 252 253 253 254 255 257 259 261 262 261 261 262
277 277 277 276 275 274 274 273 273 271 269 268 266 265 264 262 261 260 258 256 255 254 252 251 250 250 250 249 249 248 248 249 249 249 250 250 251 251 252 253 254 255 256 258 259 260 261 261 261
280 280 281 280 279 278 277 276 275 274 272 269 268 266 265 263 262 260 259 256 254 253 252 250 250 250 249 249 249 248 248 249 249 249 250 250 250 252 252 253 254 254 255 256 257 258 259 259 260
283 284 284 282 282 281 279 278 278 277 274 271 270 268 267 265 263 261 259 256 253 252 251 250 249 248 249 249 249 249 248 248 249 249 250 250 251 251 252 252 253 254 255 256 255 254 257 259 260
287 287 287 285 284 284 282 280 278 278 275 272 270 270 268 266 264 261 259 257 253 251 250 248 248 248 248 248 249 249 248 248 248 249 249 250 251 251 252 252 252 253 254 255 255 255 255 258 260
290 290 290 290 289 288 285 282 279 279 278 274 272 271 271 269 265 262 259 256 254 251 249 247 246 246 247 248 249 249 249 248 248 248 248 249 250 250 251 251 251 252 253 253 254 255 255 256 259
296 295 294 295 294 291 287 283 282 281 279 276 274 273 273 273 269 264 260 256 254 250 247 246 245 246 246 247 248 248 249 249 248 248 248 248 249 250 250 251 250 250 251 252 253 253 253 254 256
301 300 298 298 296 295 291 287 285 284 282 280 276 276 276 275 273 268 262 258 255 250 247 246 245 245 246 247 247 247 248 248 248 248 248 248 248 249 249 249 250 250 249 249 251 252 252 253 255
306 304 302 301 299 298 295 292 288 286 284 281 278 277 277 276 274 270 265 259 257 253 249 246 247 246 246 246 247 247 247 248 248 247 247 248 248 248 248 248 248 248 247 247 249 251 252 252 254
311 309 307 305 303 302 299 296 292 288 287 284 281 279 278 277 274 271 266 261 258 255 251 249 249 247 246 246 246 246 247 248 248 247 248 247 247 247 246 246 246 246 246 246 247 249 250 251 251
316 314 312 310 309 308 304 300 299 294 290 287 284 282 281 278 276 274 269 265 260 257 255 252 251 251 248 246 246 247 247 248 248 247 247 247 246 245 245 244 244 244 244 244 245 247 248 250 251
321 317 315 315 314 312 309 305 303 298 291 290 289 286 284 280 281 278 273 268 265 262 259 255 253 252 250 248 247 247 247 247 247 247 246 247 246 244 244 243 242 242 242 243 243 244 246 248 249
323 321 318 318 318 316 313 311 307 303 297 295 292 290 288 287 285 282 275 271 268 266 262 258 256 254 251 250 248 248 248 248 247 246 245 247 246 244 243 241 241 240 240 240 242 242 245 247 249
322 321 321 320 319 319 317 316 310 306 305 302 297 293 293 292 290 285 280 275 272 270 265 261 261 256 253 251 250 250 248 247 247 245 244 245 244 244 242 240 239 238 237 238 240 240 242 245 247
322 321 322 322 322 323 321 319 315 310 306 301 299 297 296 294 292 289 284 281 278 274 268 264 264 261 257 253 251 251 250 248 246 245 243 243 243 243 243 240 238 237 236 236 237 239 240 243 246
322 322 322 321 323 324 323 321 319 312 308 304 302 301 298 298 295 291 289 285 282 278 270 265 263 264 262 256 252 251 250 248 246 244 244 243 242 242 242 241 239 237 235 235 235 237 239 241 243
323 323 323 323 323 325 325 323 321 318 312 310 309 309 306 302 298 293 291 287 285 279 270 268 266 264 264 259 253 251 250 248 246 244 243 243 243 241 240 240 239 237 235 234 234 235 238 240 241
323 323 323 324 325 325 326 326 325 321 318 314 314 312 310 307 304 299 294 289 286 281 271 272 272 267 264 260 254 251 250 248 248 246 244 243 242 240 239 238 237 236 234 233 234 234 236 239 240
323 324 325 324 325 324 325 327 327 323 321 317 315 314 312 308 306 303 300 294 288 282 278 276 274 271 266 259 254 252 250 250 249 248 245 244 243 240 238 238 236 235 233 232 232 234 236 238 239
323 324 324 324 323 323 325 326 325 324 323 320 315 313 313 313 312 308 304 298 291 283 278 275 273 269 266 259 253 252 251 249 248 246 245 244 244 240 237 237 237 234 232 231 232 233 236 238 238
320 322 323 324 323 323 324 325 326 326 324 322 318 314 314 315 316 313 308 302 293 286 281 277 273 268 263 257 252 252 251 247 246 247 246 245 243 239 237 236 237 234 231 230 231 233 236 238 239
319 321 320 320 321 320 321 324 325 324 322 322 319 317 318 317 316 316 313 307 298 291 288 282 275 267 262 258 254 254 251 249 247 247 245 243 241 239 238 236 237 233 231 231 231 232 236 238 241
317 318 318 319 319 318 319 323 323 322 321 320 319 318 317 316 315 315 313 309 303 295 291 285 276 267 261 258 256 255 253 249 246 246 244 241 240 239 238 237 235 232 231 231 231 233 236 238 240
Height
5810 5811 5811 5812 5813 5813 5814 5816 5816 5817 5817 5818 5818 5819 5820 5822 5824 5828 5828 5828 5829 5830 5832 5833 5834 5835 5836 5838 5839 5841 5843 5844 5846 5847 5849 5850 5851 5852 5853 5854 5855 5856 5857 5858 5858 5859 5860 5860 5860
5806 5806 5807 5807 5807 5808 5810 5811 5811 5812 5812 5812 5813 5814 5815 5817 5818 5820 5822 5823 5824 5826 5827 5828 5830 5831 5832 5833 5835 5837 5838 5840 5842 5843 5844 5846 5847 5848 5850 5851 5852 5853 5854 5855 5855 5856 5857 5857 5858
5801 5801 5802 5802 5802 5803 5804 5805 5806 5806 5806 5807 5807 5808 5809 5811 5812 5814 5816 5817 5818 5820 5821 5823 5824 5826 5828 5829 5830 5832 5834 5835 5837 5839 5840 5841 5843 5844 5845 5847 5848 5849 5850 5851 5852 5853 5854 5854 5855
5795 5796 5796 5796 5796 5797 5798 5798 5799 5799 5800 5800 5801 5802 5803 5804 5805 5807 5809 5811 5812 5814 5815 5817 5819 5821 5822 5824 5825 5827 5829 5831 5832 5834 5835 5837 5838 5840 5841 5843 5844 5845 5846 5847 5848 5849 5850 5851 5851
5789 5789 5789 5789 5790 5791 5791 5791 5791 5792 5792 5793 5793 5794 5795 5796 5797 5799 5801 5803 5805 5807 5809 5811 5812 5814 5816 5818 5820 5822 5823 5825 5827 5829 5831 5832 5834 5835 5837 5838 5840 5841 5842 5843 5844 5845 5846 5847 5848
5782 5782 5782 5782 5783 5783 5783 5783 5783 5783 5784 5785 5785 5786 5787 5788 5789 5790 5792 5794 5796 5799 5801 5803 5805 5807 5809 5812 5814 5816 5817 5819 5821 5823 5825 5827 5828 5830 5832 5833 5835 5836 5838 5839 5840 5841 5842 5843 5844
5776 5775 5775 5775 5775 5775 5775 5775 5775 5775 5775 5776 5775 5776 5778 5778 5779 5780 5782 5784 5787 5790 5792 5795 5797 5800 5802 5804 5807 5809 5811 5813 5815 5817 5819 5821 5823 5824 5826 5828 5830 5831 5833 5834 5835 5836 5837 5838 5839
5768 5768 5767 5767 5767 5767 5766 5765 5765 5765 5765 5765 5765 5766 5767 5768 5769 5770 5772 5774 5776 5779 5782 5785 5788 5791 5794 5797 5799 5801 5803 5806 5808 5810 5812 5814 5816 5818 5820 5822 5824 5826 5827 5829 5830 5831 5832 5834 5834
5761 5762 5760 5759 5758 5758 5757 5756 5755 5754 5754 5754 5754 5755 5756 5757 5757 5758 5760 5763 5765 5768 5771 5775 5778 5782 5785 5788 5790 5793 5796 5798 5800 5803 5805 5807 5809 5811 5814 5816 5818 5820 5821 5823 5824 5825 5827 5828 5829
5754 5753 5752 5751 5749 5748 5747 5745 5744 5743 5742 5742 5743 5743 5744 5744 5745 5747 5748 5751 5753 5756 5760 5763 5767 5771 5775 5778 5781 5784 5787 5789 5792 5795 5797 5799 5802 5804 5807 5809 5811 5813 5815 5816 5818 5820 5821 5822 5824
5747 5745 5744 5742 5739 5738 5736 5735 5733 5731 5731 5730 5731 5731 5731 5732 5733 5735 5736 5738 5741 5744 5747 5750 5755 5759 5763 5767 5771 5774 5777 5780 5783 5786 5789 5791 5794 5796 5799 5801 5804 5806 5808 5809 5811 5813 5815 5816 5818
5739 5737 5735 5732 5730 5728 5726 5724 5722 5720 5719 5719 5719 5719 5719 5719 5720 5721 5723 5724 5727 5730 5734 5738 5742 5747 5752 5756 5760 5763 5767 5770 5773 5776 5779 5782 5785 5788 5790 5793 5796 5798 5801 5802 5804 5806 5808 5810 5811
5731 5729 5726 5723 5720 5718 5715 5713 5711 5709 5708 5707 5707 5706 5706 5706 5707 5708 5709 5710 5713 5716 5720 5725 5729 5734 5739 5743 5747 5752 5755 5759 5763 5766 5769 5772 5775 5778 5781 5784 5787 5790 5793 5795 5797 5799 5801 5803 5805
5723 5720 5717 5714 5710 5708 5705 5702 5700 5699 5697 5696 5695 5695 5694 5693 5693 5693 5694 5696 5698 5702 5707 5712 5716 5721 5726 5730 5734 5739 5743 5747 5751 5755 5758 5761 5765 5768 5772 5775 5778 5781 5784 5786 5789 5791 5793 5796 5798
5715 5712 5709 5705 5702 5699 5696 5694 5690 5688 5686 5685 5684 5683 5682 5681 5680 5680 5681 5683 5685 5688 5693 5698 5703 5708 5712 5716 5721 5725 5730 5734 5738 5742 5746 5750 5753 5757 5761 5764 5768 5771 5774 5777 5780 5783 5785 5788 5790
5709 5705 5702 5698 5694 5690 5688 5685 5682 5677 5675 5674 5673 5672 5671 5670 5669 5668 5668 5670 5672 5675 5680 5685 5689 5694 5698 5703 5707 5711 5716 5720 5724 5729 5733 5737 5741 5745 5749 5753 5757 5761 5764 5768 5771 5774 5777 5780 5782
5703 5699 5694 5691 5687 5682 5678 5676 5672 5667 5664 5663 5662 5661 5660 5659 5658 5657 5657 5658 5660 5662 5666 5670 5675 5679 5683 5687 5692 5696 5700 5705 5710 5714 5718 5722 5727 5731 5736 5740 5745 5749 5753 5757 5761 5765 5768 5771 5773
5697 5692 5688 5684 5680 5675 5670 5667 5663 5659 5656 5654 5652 5651 5650 5649 5648 5647 5647 5647 5649 5651 5653 5656 5660 5663 5667 5672 5676 5681 5686 5690 5694 5698 5703 5707 5711 5716 5721 5727 5732 5737 5742 5746 5751 5755 5759 5762 5764
5691 5687 5682 5678 5673 5669 5664 5660 5656 5651 5648 5646 5644 5643 5641 5640 5639 5637 5636 5636 5637 5638 5640 5642 5645 5648 5651 5655 5660 5665 5670 5674 5678 5682 5687 5691 5695 5700 5706 5712 5718 5724 5729 5734 5739 5744 5748 5752 5754
5686 5682 5678 5674 5668 5664 5659 5655 5649 5645 5641 5639 5637 5634 5633 5631 5630 5628 5626 5625 5625 5626 5627 5628 5631 5632 5636 5640 5644 5649 5654 5658 5662 5667 5672 5675 5679 5684 5690 5697 5704 5710 5716 5721 5727 5732 5737 5741 5744
5682 5678 5673 5669 5665 5659 5655 5651 5645 5641 5637 5633 5630 5627 5625 5623 5621 5619 5618 5617 5615 5615 5616 5617 5618 5620 5623 5626 5629 5633 5637 5642 5646 5651 5657 5661 5665 5670 5675 5682 5689 5695 5702 5708 5715 5721 5726 5730 5734
5679 5674 5670 5665 5660 5656 5651 5646 5642 5637 5633 5629 5626 5623 5620 5616 5613 5612 5610 5608 5606 5605 5605 5606 5607 5609 5611 5613 5616 5619 5623 5628 5632 5637 5642 5646 5651 5656 5661 5667 5674 5681 5688 5695 5702 5708 5714 5719 5723
5674 5670 5665 5661 5655 5651 5646 5641 5639 5633 5629 5625 5621 5617 5613 5610 5606 5604 5602 5600 5598 5596 5596 5597 5597 5598 5599 5600 5603 5606 5610 5614 5618 5622 5627 5632 5637 5642 5648 5654 5659 5667 5674 5682 5689 5695 5701 5707 5712
5670 5665 5661 5656 5652 5647 5642 5637 5633 5628 5623 5620 5616 5612 5607 5604 5600 5597 5595 5592 5590 5588 5588 5588 5587 5588 5589 5589 5592 5595 5598 5601 5605 5609 5614 5619 5624 5629 5635 5640 5646 5653 5661 5668 5676 5683 5689 5696 5701
5666 5662 5656 5651 5646 5643 5638 5632 5629 5623 5619 5615 5611 5607 5602 5598 5595 5591 5589 5586 5583 5581 5580 5579 5579 5579 5579 5580 5582 5584 5587 5590 5593 5598 5602 5606 5611 5617 5623 5628 5634 5640 5648 5656 5664 5671 5677 5683 5690
5661 5657 5652 5646 5641 5638 5634 5629 5626 5620 5615 5610 5606 5601 5597 5592 5589 5585 5582 5579 5576 5574 5572 5570 5570 5569 5570 5570 5572 5574 5577 5579 5583 5587 5591 5595 5600 5606 5611 5616 5622 5629 5636 5644 5652 5659 5665 5672 5678
5656 5652 5648 5643 5637 5633 5629 5625 5622 5616 5611 5606 5601 5597 5592 5588 5583 5579 5575 5571 5568 5566 5564 5562 5560 5560 5560 5561 5562 5566 5568 5570 5574 5577 5580 5584 5589 5594 5599 5605 5612 5618 5625 5633 5640 5647 5654 5660 5667
5652 5647 5642 5637 5631 5626 5624 5620 5617 5611 5606 5601 5596 5592 5587 5583 5578 5574 5569 5565 5562 5558 5556 5553 5552 5551 5551 5551 5554 5556 5559 5561 5564 5567 5570 5574 5579 5583 5588 5594 5600 5607 5614 5622 5629 5636 5643 5649 5656
5647 5643 5637 5632 5628 5622 5616 5618 5612 5606 5600 5595 5591 5586 5581 5577 5573 5568 5563 5559 5555 5551 5548 5545 5543 5543 5543 5544 5547 5549 5550 5552 5555 5557 5560 5564 5568 5573 5578 5584 5590 5597 5604 5612 5619 5626 5632 5638 5645
5642 5638 5633 5628 5623 5617 5611 5613 5606 5601 5594 5589 5585 5580 5576 5571 5567 5562 5557 5553 5548 5545 5541 5538 5536 5536 5537 5538 5540 5541 5543 5545 5546 5549 5551 5555 5559 5564 5569 5574 5580 5587 5595 5602 5608 5615 5622 5628 5635